Location: Neuvy Saint Sepulchre
(46.5953°N, 1.8122°E)
Time: 16:17:46
(UTC+02:00)

ISS - Pass Details

Date: 01 May 2026
Orbit: 414 x 424 km, 51.6° (Epoch: 21 May)

Event Time Altitude Azimuth Distance (km) Brightness Sun altitude
Exits shadow 03:15:52 29° 46° (NE) 808 -1.8 -25.4°
Drops below altitude 10° 03:17:43 10° 60° (ENE) 1,501 -0.3 -25.3°
Sets 03:19:51 0° 65° (ENE) 2,369 0.8 -25.1°
